Find Starlink 31303

NORAD ID: 59239 Int'l Des: 2024-049 Owner: SPXS Country: US Constellation: starlink operational
LEOCIRCULAR

当前视图

正在加载3D地球...

About Starlink 31303

Starlink 31303 (NORAD 59239) is a starlink constellation satellite (v2 mini) launched Mar 16, 2024 by SPXS of US. It operates in LEO, CIRCULAR orbit with a mass of 730.00 kg.

关于 Starlink 31303

正在加载描述...

即将过境

Passes for default location (London). Set your location on the main map for personalized predictions.

高度历史

Loading altitude history...

两行轨道根数

1 59239U 24049J 26177.57691414 -.00000454 00000-0 -69674-5 0 9999
2 59239 43.0006 237.7530 0001228 279.2861 80.7852 15.27572934129184
Epoch: Jun 26, 2026 • Age: 19 hours

当前状态

高度 482.9 km
速度 7.63 km/s
星下点 18.78°N, 23.69°W
发射日期 Mar 16, 2024
运行时间 2.2 years
类型 internet

技术详情

分类 Payload
质量 730.00 kg
干质量 700.00 kg
总质量 730.00 kg
长度 0.30 m
直径 4.10 m
跨度 29.00 m
形状 Box + pan
制造商 SPXS
平台类型 Starlink V2M
阶段状态 In Orbit
所有者/国家 SPXS/US

Most Searched